Terug naar catalogus

ARIANE 5 R/B

ActiefHEO
NORAD 40273·ROCKET BODY·🇫🇷 France

Gelanceerd Oct 16, 2014 vanaf Guiana Space Centre

Loading…

Volgende Passages (komende 24 uur)

TLE

VersSource: Space-Track

Epoch: Sep 13, 2026, 21:27 UTC

1 40273U 14062C   26256.89417352  .00003205  00000-0  63539-3 0  9998
2 40273   6.5226   0.6779 6946281 121.1954 324.4595  2.71708520106435

Volg ARIANE 5 R/B in realtime met AllMySat

Download on the App Store